This demonstration page uses our WeatherBlox Daily Observations layout. Learn more.

Hourly Observations for August 11, 2015

Temp ( °F °C ) Dew Point ( °F °C ) Humidity (%) Winds ( mph kmh ) Pressure ( in mb ) Visibility ( mi km ) Precip ( " mm )
12:15 am 00:15 Clear 65 18.5 61 16.3 87 87 E 6 9 30.12 1020 10 16.0934 0 0
12:35 am 00:35 Clear 64 18 61 15.9 88 88 ESE 5 7 30.12 1020 10 16.0934 0 0
12:55 am 00:55 Clear 65 18.1 61 16 88 88 ESE 5 7 30.12 1020 10 16.0934 0 0
1:15 am 01:15 Clear 64 18 61 16 88 88 E 3 6 30.12 1020 10 16.0934 0 0
1:35 am 01:35 Clear 64 18 60 15.8 87 87 SE 3 6 30.18 1022 10 16.0934 0 0
1:55 am 01:55 Clear 63 17.1 60 15.4 90 90 Calm 30.18 1022 10 16.0934 0 0
2:15 am 02:15 Clear 62 16.7 60 15.6 93 93 Calm 30.18 1022 10 16.0934 0 0
2:35 am 02:35 Clear 61 15.9 58 14.5 91 91 Calm 30.15 1021 10 16.0934 0 0
2:55 am 02:55 Clear 61 16 59 14.8 93 93 Calm 30.15 1021 10 16.0934 0 0
3:15 am 03:15 Clear 59 15.2 57 14.1 93 93 Calm 30.15 1021 10 16.0934 0 0
3:35 am 03:35 Clear 59 15.1 57 14.1 94 94 E 7 11 30.15 1021 10 16.0934 0 0
3:55 am 03:55 Clear 60 15.8 57 14 89 89 E 7 11 30.15 1021 10 16.0934 0 0
4:15 am 04:15 Clear 61 16.1 58 14.3 89 89 E 6 9 30.15 1021 10 16.0934 0 0
4:35 am 04:35 Clear 61 16 58 14.2 89 89 E 5 7 30.15 1021 10 16.0934 0 0
4:55 am 04:55 Clear 61 16 57 14.1 89 89 E 5 7 30.15 1021 10 16.0934 0 0
5:15 am 05:15 Clear 59 14.8 56 13.5 92 92 ESE 7 11 30.15 1021 10 16.0934 0 0
5:35 am 05:35 Clear 59 15 57 13.7 92 92 ESE 6 9 30.15 1021 10 16.0934 0 0
5:55 am 05:55 Clear 60 15.5 57 13.9 90 90 ESE 6 9 30.18 1022 10 16.0934 0 0
6:15 am 06:15 Clear 59 15 56 13.6 91 91 ESE 5 7 30.18 1022 10 16.0934 0 0
6:35 am 06:35 Clear 58 14.5 56 13.1 91 91 ESE 5 7 30.18 1022 10 16.0934 0 0
6:50 am 06:50 Sunny 58 14.2 56 13.1 93 93 ESE 5 7 30.21 1023 10 16.0934 0 0
7:15 am 07:15 Sunny 60 15.8 58 14.3 91 91 SW 3 6 30.21 1023 10 16.0934 0 0
7:35 am 07:35 Partly Cloudy 62 16.6 58 14.7 89 89 Calm 30.21 1023 10 16.0934 0 0
7:55 am 07:55 Partly Cloudy 62 16.6 58 14.5 88 88 Calm 30.21 1023 10 16.0934 0 0
8:30 am 08:30 Sunny 65 18.2 59 15 82 82 S 5 7 30.21 1023 10 16.0934 0 0
8:55 am 08:55 Sunny 66 19.1 60 15.5 80 80 S 6 9 30.18 1022 10 16.0934 0 0
9:15 am 09:15 Sunny 68 20.1 60 15.6 75 75 SSE 6 9 30.21 1023 10 16.0934 0 0
9:35 am 09:35 Sunny 70 20.9 61 15.9 73 73 S 6 9 30.21 1023 10 16.0934 0 0
9:55 am 09:55 Sunny 71 21.4 62 16.4 73 73 SSW 7 11 30.21 1023 10 16.0934 0 0
10:15 am 10:15 Sunny 72 22.2 61 15.9 68 68 S 10 17 30.21 1023 10 16.0934 0 0
10:35 am 10:35 Sunny 73 23 60 15.8 64 64 SSW 9 15 30.18 1022 10 16.0934 0 0
10:55 am 10:55 Sunny 74 23.1 58 14.6 59 59 S 9 15 30.18 1022 10 16.0934 0 0
11:15 am 11:15 Sunny 74 23.6 58 14.6 57 57 S 9 15 30.18 1022 10 16.0934 0 0
11:35 am 11:35 Sunny 75 23.7 58 14.7 57 57 S 3 6 30.18 1022 10 16.0934 0 0
11:55 am 11:55 Sunny 76 24.7 58 14.5 53 53 S 8 13 30.18 1022 10 16.0934 0 0
12:15 pm 12:15 Sunny 76 24.6 56 13.4 50 50 SSE 9 15 30.18 1022 10 16.0934 0 0
12:35 pm 12:35 Sunny 77 24.8 56 13.5 50 50 S 7 11 30.15 1021 10 16.0934 0 0
12:55 pm 12:55 Sunny 78 25.3 56 13.4 48 48 S 12 19 30.15 1021 10 16.0934 0 0
1:15 pm 13:15 Sunny 78 25.6 56 13.3 47 47 S 12 19 30.12 1020 10 16.0934 0 0
1:35 pm 13:35 Sunny 78 25.7 56 13.3 46 46 S 6 9 30.12 1020 10 16.0934 0 0
1:55 pm 13:55 Sunny 79 26 57 13.8 47 47 S 8 13 30.12 1020 10 16.0934 0 0
2:15 pm 14:15 Sunny 78 25.6 56 13.5 47 47 SSE 6 9 30.12 1020 10 16.0934 0 0
2:35 pm 14:35 Sunny 79 25.9 58 14.2 49 49 S 8 13 30.09 1019 10 16.0934 0 0
2:55 pm 14:55 Sunny 79 26.2 57 13.9 47 47 SSE 8 13 30.09 1019 10 16.0934 0 0
3:15 pm 15:15 Sunny 80 26.5 57 13.8 46 46 SE 6 9 30.09 1019 10 16.0934 0 0
3:35 pm 15:35 Sunny 80 26.6 56 13.6 45 45 SSE 7 11 30.09 1019 10 16.0934 0 0
3:55 pm 15:55 Sunny 80 26.8 56 13.2 43 43 SE 8 13 30.09 1019 10 16.0934 0 0
4:15 pm 16:15 Sunny 80 26.8 56 13.5 44 44 SSE 10 17 30.09 1019 10 16.0934 0 0
4:35 pm 16:35 Sunny 81 27.1 57 14 45 45 S 6 9 30.06 1018 10 16.0934 0 0
4:55 pm 16:55 Sunny 81 27 56 13.3 43 43 SSE 8 13 30.06 1018 10 16.0934 0 0
5:15 pm 17:15 Sunny 81 27 55 12.9 42 42 SSE 6 9 30.06 1018 10 16.0934 0 0
5:35 pm 17:35 Sunny 81 27.3 56 13.4 42 42 SSE 6 9 30.06 1018 10 16.0934 0 0
5:55 pm 17:55 Sunny 81 27.3 57 14.1 44 44 SSE 8 13 30.06 1018 10 16.0934 0 0
6:15 pm 18:15 Sunny 81 27.1 57 14 45 45 SSE 8 13 30.06 1018 10 16.0934 0 0
6:35 pm 18:35 Sunny 81 27 57 13.7 44 44 SSE 6 9 30.06 1018 10 16.0934 0 0
6:55 pm 18:55 Sunny 80 26.6 57 14 46 46 SSE 7 11 30.06 1018 10 16.0934 0 0
7:15 pm 19:15 Sunny 80 26.4 59 14.9 49 49 SSE 6 9 30.06 1018 10 16.0934 0 0
7:35 pm 19:35 Sunny 78 25.6 61 16 55 55 SSE 5 7 30.06 1018 10 16.0934 0 0
7:55 pm 19:55 Sunny 77 25 62 16.7 60 60 SSE 3 6 30.06 1018 10 16.0934 0 0
8:15 pm 20:15 Sunny 75 24 64 17.7 68 68 SE 3 6 30.09 1019 10 16.0934 0 0
8:35 pm 20:35 Sunny 72 22.2 64 17.8 76 76 SE 6 9 30.09 1019 10 16.0934 0 0
8:55 pm 20:55 Clear 71 21.6 62 16.8 74 74 SE 7 11 30.12 1020 10 16.0934 0 0
9:15 pm 21:15 Clear 71 21.5 62 16.8 75 75 SE 5 7 30.12 1020 10 16.0934 0 0
9:35 pm 21:35 Clear 69 20.8 62 16.8 78 78 SSE 3 6 30.15 1021 10 16.0934 0 0
9:55 pm 21:55 Partly Cloudy 67 19.4 63 17 86 86 SE 5 7 30.15 1021 10 16.0934 0 0
10:15 pm 22:15 Mostly Cloudy 68 20.1 62 16.8 81 81 SE 6 9 30.15 1021 10 16.0934 0 0
10:35 pm 22:35 Cloudy 69 20.3 62 16.5 79 79 SSE 5 7 30.15 1021 10 16.0934 0 0
10:55 pm 22:55 Partly Cloudy 68 19.8 61 16 79 79 SSE 5 7 30.15 1021 10 16.0934 0 0
11:15 pm 23:15 Clear 67 19.3 60 15.5 79 79 SSE 6 9 30.15 1021 10 16.0934 0 0
11:35 pm 23:35 Clear 66 19 60 15.3 79 79 SSE 5 7 30.15 1021 10 16.0934 0 0
11:55 pm 23:55 Clear 67 19.2 59 15 77 77 S 6 9 30.15 1021 10 16.0934 0 0

Powered by AerisWeather